Theta_e
316 317 312 321 326 328 326 324 325 329 332 332 331 336 338 337 335 336 330 328 327 327 325 323 321 322 320 319 319 318 318 318 319 319 319 319 320 319 318 317 316 317 317 318 318 317 316 315 313
319 312 325 329 324 322 322 324 325 328 327 329 331 330 333 338 335 331 328 328 327 327 325 324 323 324 322 320 320 319 319 318 319 319 320 320 320 321 321 319 318 317 318 320 321 321 321 319 317
320 316 328 329 325 321 321 323 324 323 329 330 333 330 332 334 335 330 328 328 328 327 326 325 325 325 323 321 320 319 319 318 319 319 320 320 320 321 322 322 320 318 317 319 322 322 322 321 322
315 323 324 327 326 323 322 327 328 329 328 330 332 334 332 332 334 330 328 328 328 327 327 326 326 325 324 322 321 320 319 319 319 319 320 320 321 321 322 322 322 321 318 318 321 323 323 324 328
321 325 321 325 324 325 327 324 325 325 327 329 330 334 332 333 333 330 328 328 327 327 327 327 326 325 324 323 321 320 320 319 319 319 319 320 320 321 322 322 322 322 321 319 320 323 324 324 326
322 324 324 319 321 323 324 325 326 326 327 329 332 333 333 333 331 329 329 328 327 328 328 328 326 324 324 323 322 321 320 319 319 319 319 319 320 320 321 322 322 322 322 321 320 321 322 322 322
320 325 320 323 322 322 321 321 323 324 325 330 329 334 332 334 333 330 330 329 328 328 328 329 327 325 323 323 321 321 319 318 318 318 319 319 320 320 321 321 321 321 321 322 322 321 322 323 324
320 324 320 321 320 322 324 325 325 326 329 327 329 332 331 332 334 333 332 330 330 330 329 328 327 327 325 323 323 321 320 319 318 317 317 318 319 320 320 320 321 321 321 323 323 324 324 323 324
323 323 322 321 322 321 324 326 327 326 326 326 328 329 327 330 334 334 333 331 331 331 331 331 329 329 329 327 325 322 321 320 318 317 317 317 318 319 319 320 320 320 321 322 325 326 326 325 325
326 325 323 321 321 323 323 326 326 326 326 327 327 328 328 329 331 334 334 333 332 331 331 331 331 331 330 328 326 324 322 321 320 319 318 316 317 318 319 319 320 320 321 321 326 328 329 327 328
325 327 324 322 321 322 323 323 324 325 326 325 326 327 327 327 328 329 332 333 332 331 331 331 331 332 332 332 331 327 325 323 321 321 319 317 317 317 318 318 319 320 321 321 324 329 331 333 330
324 325 325 324 323 324 324 324 326 326 325 324 326 327 328 327 327 328 330 330 331 331 331 332 332 332 333 333 333 333 331 329 327 323 320 318 317 317 317 318 318 324 322 321 322 329 332 332 330
323 323 324 326 325 325 326 327 327 328 327 328 329 328 328 327 326 326 327 328 328 329 331 328 328 328 328 329 329 329 331 333 332 328 323 321 319 318 317 317 318 325 324 320 321 330 332 331 332
320 321 322 323 327 328 328 328 328 328 328 327 327 327 327 326 326 325 326 327 327 327 328 327 327 326 326 326 327 328 328 329 331 332 331 327 324 321 319 318 318 320 321 320 322 332 332 331 332
316 319 319 321 324 325 326 325 327 326 326 326 326 326 326 326 326 325 326 326 326 327 326 326 326 325 325 326 327 327 328 329 329 330 333 332 331 329 326 320 318 318 319 321 321 333 332 332 332
315 316 318 320 318 319 321 326 327 325 325 325 326 326 325 325 325 326 326 325 325 325 326 326 325 325 325 325 327 327 328 328 328 329 330 333 333 333 333 328 321 318 319 320 324 332 332 332 331
315 318 319 319 320 320 320 324 325 324 323 325 325 325 325 325 325 325 325 325 325 325 325 325 324 325 325 326 326 327 328 328 328 329 329 331 333 334 335 332 325 321 321 326 333 332 331 328 329
316 316 318 320 320 319 320 322 323 323 322 323 324 324 324 324 324 325 325 324 324 324 325 324 323 326 327 326 326 327 328 328 329 329 329 332 334 337 335 331 327 328 329 334 334 332 330 330 330
315 316 317 318 319 320 321 323 323 322 322 322 323 323 323 323 323 323 323 323 323 323 324 324 324 324 327 327 327 328 328 327 328 329 329 334 337 337 333 333 336 333 333 334 333 331 331 331 329
314 315 315 316 316 318 320 322 322 321 321 321 322 322 322 322 321 321 322 322 322 323 323 324 323 323 325 327 328 328 327 327 329 330 332 337 338 337 337 338 333 332 332 333 333 332 330 328 329
312 314 315 316 316 317 317 319 319 319 319 318 318 318 318 318 319 319 320 321 321 322 322 322 323 323 325 327 327 327 327 328 330 332 335 338 339 339 340 335 334 332 332 332 332 330 329 329 328
312 312 313 314 315 317 316 319 320 320 320 319 318 318 318 318 318 317 318 318 319 320 320 321 321 322 325 327 326 327 328 329 331 334 337 339 340 341 337 333 332 332 332 332 331 330 329 326 325
311 311 313 314 315 316 316 316 318 318 319 319 320 318 317 317 317 317 317 316 316 317 317 319 320 323 325 328 328 330 331 333 335 338 340 339 338 335 333 332 332 332 332 332 331 330 326 325 325
310 311 311 312 313 315 315 316 317 318 318 318 318 317 317 317 317 316 316 317 318 319 319 319 322 323 328 330 331 333 335 337 339 339 338 336 335 333 332 332 331 330 331 332 331 329 326 325 325
308 310 311 312 312 313 314 315 316 318 317 317 317 317 317 317 317 317 317 317 318 318 320 321 321 326 331 333 336 337 339 339 339 338 337 336 332 332 333 333 333 333 332 331 330 326 325 325 325
308 309 311 311 312 312 312 314 315 316 316 316 316 316 317 318 320 321 322 318 318 319 319 321 326 332 336 338 339 340 340 339 338 337 334 332 332 332 332 332 332 332 330 330 328 326 325 324 323
308 308 310 310 311 312 313 313 314 315 316 317 316 316 317 319 322 324 325 323 320 320 322 326 333 337 338 339 340 340 339 334 332 332 332 331 332 331 331 331 329 328 329 328 327 325 324 324 326
309 310 308 309 310 311 313 314 315 316 315 316 316 316 317 322 328 331 326 322 320 321 326 333 337 338 339 340 339 335 333 333 332 331 331 331 331 331 329 329 328 328 328 327 325 324 325 326 325
310 310 310 310 310 311 312 314 316 316 316 316 316 315 316 319 328 333 332 324 326 329 334 339 340 339 339 337 334 333 333 332 331 331 331 329 328 329 328 327 327 327 327 325 324 325 325 324 325
309 309 309 312 311 311 312 312 314 315 314 315 316 315 316 318 326 333 338 335 334 337 338 339 340 338 336 334 333 332 330 329 327 327 328 329 328 328 328 327 326 327 325 324 326 326 324 324 325
Wind_Speed
9 7 8 5 3 1 4 7 8 7 3 4 5 7 16 5 12 3 13 20 19 22 23 22 20 17 14 14 14 14 15 15 13 12 11 9 8 6 6 5 5 4 3 2 2 3 3 4 3
7 9 8 2 4 6 6 7 13 8 10 14 8 11 7 10 11 2 19 22 21 20 21 21 20 15 14 15 15 15 16 16 14 14 12 10 8 7 6 5 4 4 3 1 1 2 3 2 2
9 11 4 3 4 11 5 9 12 10 13 14 5 6 5 4 16 10 20 22 21 20 17 16 16 15 16 16 16 16 16 17 16 15 13 11 9 7 7 5 4 3 3 2 2 3 3 3 3
9 5 0 5 13 11 11 2 4 5 9 3 8 4 5 10 9 16 21 22 21 20 16 15 13 15 17 18 18 17 17 17 17 16 15 13 10 9 7 5 3 2 1 1 2 3 4 4 4
11 3 5 6 15 8 10 19 15 17 12 6 9 5 4 10 13 22 23 23 21 18 17 14 14 15 18 19 20 19 19 20 19 18 18 15 13 11 9 7 5 2 1 1 1 2 3 5 5
5 1 4 15 15 12 13 15 16 13 15 12 6 7 4 9 18 26 24 22 21 17 16 16 18 19 20 21 22 22 22 23 22 21 20 18 16 14 12 10 7 4 2 2 2 3 4 5 6
5 4 12 9 8 13 18 14 17 14 15 7 6 3 2 11 17 23 23 22 20 19 19 17 18 19 22 23 24 24 25 25 25 24 24 22 20 18 15 12 9 7 5 4 4 4 4 5 7
8 3 11 9 12 16 7 2 3 4 7 11 2 2 4 3 19 20 22 23 21 20 20 20 20 20 22 25 26 28 27 28 28 27 26 25 23 20 16 13 10 8 6 6 7 6 5 5 7
10 8 13 17 13 11 2 6 2 4 8 8 4 6 15 1 14 18 22 22 21 20 19 18 21 23 23 27 30 31 31 31 30 30 30 29 27 24 20 17 14 12 10 10 10 8 8 6 7
12 11 20 8 15 10 13 6 8 7 12 10 13 6 9 10 3 11 18 21 20 20 17 15 16 22 27 30 33 33 35 34 35 34 36 34 33 29 24 22 17 17 15 16 12 12 11 9 8
12 20 21 17 19 18 21 21 13 14 19 19 12 10 18 14 9 9 13 20 22 22 22 20 20 22 29 32 35 36 38 39 39 38 40 39 37 32 30 25 19 22 16 18 15 15 14 12 10
15 24 28 17 19 12 16 20 15 18 32 19 17 23 22 21 16 12 12 14 23 25 19 22 26 31 33 34 37 39 41 43 41 43 42 42 40 37 35 27 26 24 22 20 17 18 15 15 14
25 21 18 24 24 17 15 21 16 22 31 23 24 28 26 20 20 16 14 15 15 20 21 13 18 22 24 28 30 36 42 45 43 45 45 43 41 40 37 31 32 25 23 22 20 18 17 17 16
15 24 30 23 15 12 17 27 18 20 27 18 19 27 30 24 24 19 18 17 16 15 18 18 22 26 28 28 29 31 36 38 40 42 44 42 39 40 37 36 34 29 23 22 20 19 18 18 17
27 18 9 16 27 20 19 30 30 33 31 31 28 28 28 25 24 23 20 21 16 14 18 24 26 29 27 27 28 28 29 29 33 35 38 37 33 32 32 35 34 32 25 23 20 18 18 18 19
11 17 22 25 13 8 15 30 29 17 25 28 28 28 20 19 21 21 21 22 23 22 21 26 31 29 31 27 26 28 26 27 29 29 31 32 29 23 24 29 32 29 25 22 19 17 16 19 18
14 21 25 26 22 14 16 31 24 23 24 23 24 25 23 22 26 30 30 26 21 24 29 30 28 28 27 25 27 28 24 28 27 26 25 25 22 19 21 22 25 25 23 21 18 15 16 15 18
22 27 25 24 10 22 19 34 21 23 17 23 24 24 24 26 32 39 39 39 36 32 27 27 24 26 27 25 28 24 25 28 27 24 22 20 17 17 17 18 19 20 20 19 16 13 13 15 17
12 16 23 18 13 14 23 30 26 25 29 31 35 34 33 31 35 42 44 43 39 32 30 29 23 26 23 24 21 23 26 28 24 22 19 17 14 15 15 15 12 16 17 15 13 14 14 15 15
24 21 11 10 5 9 19 26 19 13 19 25 28 30 32 33 33 38 37 34 31 31 29 27 24 25 23 19 19 23 25 24 21 17 16 15 14 15 15 15 10 14 15 14 16 15 15 14 13
20 25 20 9 4 10 11 20 21 17 22 27 29 30 31 33 30 36 37 34 32 29 25 23 23 24 22 18 18 21 22 19 18 18 17 15 15 15 15 14 12 12 12 14 13 14 14 13 12
21 14 19 18 11 13 4 13 17 17 19 18 22 25 31 28 31 42 45 46 44 36 29 23 22 23 21 18 20 22 18 17 17 15 15 14 15 16 16 12 13 13 12 12 12 13 12 11 11
17 7 11 11 16 15 20 11 22 17 21 23 20 27 26 32 38 37 39 42 39 37 33 27 24 22 20 17 17 15 14 13 12 15 16 16 18 16 15 14 13 12 13 13 13 12 10 11 11
10 18 18 10 10 14 18 13 21 18 21 20 14 19 21 22 22 26 28 27 26 21 23 22 21 20 17 15 14 13 14 14 15 18 17 18 17 16 16 14 13 12 14 14 13 11 11 10 11
10 12 9 11 11 17 11 12 21 11 11 7 5 11 16 17 18 19 20 18 22 21 17 18 19 16 16 15 15 15 12 11 13 15 17 18 17 15 14 14 15 14 14 14 13 11 10 10 9
14 14 10 17 13 14 13 13 9 17 19 21 17 8 13 15 16 18 18 15 13 17 19 18 16 16 18 18 18 16 14 14 14 14 16 14 12 12 12 13 14 14 14 13 11 9 9 8 7
10 11 14 4 1 8 11 22 18 14 11 8 6 8 20 25 24 29 19 14 13 13 15 15 17 20 21 20 18 17 15 15 17 16 14 13 13 12 11 13 13 13 13 12 10 9 8 8 7
6 7 10 6 7 9 8 17 9 3 13 2 8 14 21 26 25 26 17 9 14 14 14 17 20 21 21 20 18 18 18 16 15 13 13 13 12 11 11 12 11 12 12 11 9 9 9 7 5
3 6 4 6 10 7 6 4 6 18 7 7 8 15 24 25 27 24 12 2 10 15 18 23 25 24 23 21 21 20 18 15 14 13 12 11 10 10 10 10 11 12 11 10 9 8 7 5 5
9 6 2 6 18 12 8 5 7 10 7 12 15 24 27 23 24 20 9 1 9 17 23 27 26 25 24 24 21 18 15 13 12 11 10 9 9 10 10 10 11 10 11 10 8 7 6 5 5
Wind_Direction
202 192 164 165 211 212 226 243 252 255 232 161 141 189 194 202 167 206 167 171 174 179 184 183 183 174 172 174 177 178 178 175 174 174 167 161 153 145 136 128 127 124 118 144 188 222 255 272 263
187 173 161 169 234 216 232 232 244 258 263 294 267 222 206 215 192 220 160 169 175 185 183 179 177 175 183 189 188 190 188 186 185 185 183 176 167 157 141 131 120 116 111 133 200 230 243 247 255
183 172 181 205 215 223 244 214 241 245 293 276 285 212 214 213 211 178 169 170 170 177 179 183 176 184 192 199 201 200 199 197 196 196 196 192 184 175 164 149 133 124 130 156 195 237 236 237 255
177 178 138 229 232 229 230 216 166 283 336 236 263 256 226 227 199 182 171 170 176 173 174 187 190 198 200 208 209 209 211 210 211 206 207 206 202 195 186 174 159 123 136 159 200 234 254 249 252
177 180 224 235 243 250 250 262 272 282 287 259 258 241 224 203 190 176 174 175 173 172 178 186 202 210 211 217 218 216 219 220 220 217 216 218 214 211 208 201 195 176 181 257 255 239 244 256 263
190 197 218 232 237 243 264 266 270 266 287 291 232 238 193 191 175 179 184 182 183 187 180 192 208 216 221 225 229 225 224 226 227 226 225 226 224 221 221 220 224 228 264 298 317 290 286 281 284
223 209 236 241 252 258 260 260 261 274 275 290 273 230 252 189 173 184 191 193 194 199 205 207 214 223 229 232 234 236 233 233 232 232 232 232 231 228 227 231 237 245 266 285 298 296 279 285 289
214 231 236 236 236 256 261 250 307 211 260 305 302 257 353 231 185 184 194 196 205 210 216 222 225 232 238 240 243 241 239 240 239 239 239 238 235 232 229 232 236 250 279 292 290 286 271 277 285
194 231 242 233 217 226 233 237 270 300 277 304 340 104 12 120 195 195 197 198 209 217 224 232 240 243 247 249 249 247 245 243 243 242 244 242 236 232 228 229 235 252 267 286 276 277 277 280 287
201 227 234 228 229 230 236 226 294 298 295 285 306 230 21 36 325 219 211 213 222 229 229 238 258 259 257 255 253 252 251 249 246 246 245 238 237 235 234 234 239 260 258 270 262 264 267 268 281
207 235 235 231 228 231 246 258 248 272 276 271 271 275 305 312 297 294 256 237 237 242 242 249 263 267 264 260 260 257 256 255 252 250 248 244 240 237 235 235 239 255 247 266 260 258 256 253 266
237 229 241 248 242 232 237 252 252 249 256 269 269 284 286 285 283 270 265 259 251 254 264 271 271 274 275 270 269 269 263 262 259 256 252 246 244 240 239 236 239 252 247 256 254 255 249 256 259
235 239 242 243 250 250 261 247 247 255 262 263 272 277 273 273 278 273 268 259 264 253 251 272 285 291 292 283 276 276 271 266 265 260 257 253 251 249 244 238 240 253 249 248 253 254 257 259 255
236 242 245 245 238 236 251 265 241 252 258 257 261 266 271 271 273 272 269 261 258 258 251 283 296 299 299 288 283 280 276 268 265 263 261 260 259 256 249 241 241 247 250 247 253 254 257 259 251
250 255 238 236 238 247 252 278 245 248 259 262 259 262 266 267 275 274 275 271 268 267 281 290 296 301 298 287 281 279 275 262 260 262 262 264 263 261 256 245 242 245 244 242 255 251 259 261 254
242 236 244 237 210 226 187 259 265 231 246 253 266 267 262 263 273 272 274 278 283 290 294 297 300 298 293 282 278 271 267 251 255 259 263 262 264 265 256 244 239 241 239 242 247 247 262 268 256
225 235 227 239 213 199 193 254 257 260 244 249 251 264 274 280 277 276 279 284 290 297 299 296 300 300 290 275 274 264 254 247 253 253 258 263 262 259 244 235 231 233 235 239 228 247 266 268 264
226 228 236 237 219 214 217 249 252 264 266 268 263 265 271 274 279 282 284 286 291 296 289 293 300 304 286 274 269 255 245 246 246 246 253 256 251 243 227 221 217 224 220 216 229 253 271 270 268
259 264 245 259 231 209 221 244 250 247 259 262 270 275 276 278 283 283 284 291 289 282 277 284 294 305 292 272 252 244 238 245 247 242 248 244 235 218 205 208 208 209 210 218 233 250 261 270 272
246 255 266 252 245 235 244 250 253 249 255 257 264 270 274 280 280 283 285 283 285 275 271 272 288 296 295 261 245 240 243 252 245 235 237 230 209 199 199 196 191 207 208 217 236 255 267 266 267
237 240 240 250 291 249 274 267 254 247 249 254 259 264 267 268 273 279 275 277 280 279 275 276 283 291 288 260 243 240 243 243 228 225 223 203 195 195 196 196 199 200 207 225 238 259 261 258 257
242 236 240 239 253 243 202 275 259 252 252 252 260 263 264 271 269 273 275 276 274 275 278 274 279 284 278 256 241 240 243 234 227 223 204 188 193 192 191 196 196 205 215 228 255 257 255 249 247
235 206 203 216 228 243 240 263 261 254 257 257 256 257 267 267 267 268 270 273 274 270 271 271 270 270 269 246 231 222 218 211 208 192 177 183 186 188 191 193 197 222 228 248 256 260 252 244 239
227 215 237 251 246 236 232 231 268 248 258 263 265 262 273 279 286 281 276 271 269 262 253 254 256 262 248 223 209 204 198 196 189 178 178 181 186 191 194 204 218 232 238 248 254 249 242 245 241
212 189 191 216 217 237 215 220 245 263 264 271 223 322 309 294 297 294 288 270 251 251 248 247 253 243 216 203 188 185 180 181 184 182 183 184 185 194 206 216 226 229 242 246 239 233 241 243 237
213 199 206 219 216 231 210 230 241 230 267 272 264 313 337 333 335 318 316 283 262 245 244 237 225 204 189 179 179 173 172 171 178 180 175 182 193 201 205 213 222 233 236 227 218 232 232 222 213
198 213 223 278 156 227 197 243 269 258 275 257 295 326 352 347 346 342 319 277 249 237 226 210 192 180 176 175 174 171 172 171 166 167 176 186 196 201 207 223 229 224 214 206 215 220 209 207 227
245 216 194 211 206 208 207 239 232 197 209 18 35 4 346 352 348 343 328 251 221 214 193 180 176 173 170 168 168 167 163 166 171 181 189 196 199 210 219 220 211 203 196 202 212 204 203 221 234
238 234 245 244 238 243 241 218 218 224 97 47 14 352 353 348 350 348 343 216 181 182 173 168 169 169 164 165 164 162 164 170 176 182 194 201 207 213 204 198 189 184 191 200 191 190 201 205 239
251 285 257 250 215 239 279 278 114 119 69 8 350 347 345 345 347 348 342 191 167 163 164 167 168 166 163 161 158 159 165 172 181 181 190 197 188 181 182 180 180 185 186 180 181 194 204 229 235